EW0596 Weather Reports


time (UTC)temp
F
wind
direction
speed
knots
gust
knots
rain 1hr
in
rain 24hr
in
rain mn
in
humidity
%
barometer
mb
20210920050030 45 56 0.9 2.6 0.00 0.00 0.00 95 1020.3
20210920044605 45 5 0.0 0.0 0.00 0.00 0.00 95 1020.6
20210920043039 45 5 0.0 0.9 0.00 0.00 0.00 95 1020.4
20210920041522 44 5 0.9 3.5 0.00 0.00 0.00 94 1020.1
20210920040020 45 5 0.0 0.9 0.00 0.00 0.00 94 1019.9
20210920034529 45 5 0.0 0.9 0.00 0.00 0.00 94 1019.7
20210920033013 45 5 0.0 0.0 0.00 0.00 0.00 93 1019.5
20210920031502 47 5 0.0 0.0 0.00 0.00 0.00 93 1019.5
20210920030006 47 5 0.0 1.7 0.00 0.00 0.00 93 1019.6
20210920024640 47 5 0.0 2.6 0.00 0.00 0.00 94 1019.2
20210920023130 47 334 0.0 1.7 0.00 0.00 0.00 93 1018.6
20210920021641 47 315 0.0 0.9 0.00 0.00 0.00 93 1018.3
20210920020135 47 315 0.0 1.7 0.00 0.00 0.00 92 1018.1
20210920014554 48 315 0.0 0.9 0.00 0.00 0.00 92 1017.9
20210920013103 48 315 0.0 0.0 0.00 0.00 0.00 91 1018.0
20210920011553 49 315 0.0 0.0 0.00 0.00 0.00 91 1017.8
20210920004619 49 315 0.0 1.7 0.00 0.00 0.00 89 1017.3
20210920003008 49 315 1.7 4.3 0.00 0.00 0.00 89 1017.1
20210919234539 49 300 0.0 6.1 0.00 0.00 0.00 92 1017.0
20210919233042 49 199 0.0 2.6 0.00 0.00 0.00 92 1016.9
20210919214527 60 251 2.6 8.7 0.00 0.00 0.00 64 1014.8
20210919213043 59 259 1.7 7.0 0.00 0.00 0.00 71 1014.6
20210919210009 58 232 0.9 7.8 0.00 0.00 0.00 71 1014.4
20210919204618 58 189 0.9 6.1 0.00 0.00 0.00 74 1014.5
20210919203034 56 248 1.7 7.0 0.00 0.00 0.00 75 1014.5
20210919201513 56 242 1.7 5.2 0.00 0.00 0.00 77 1014.5
20210919194511 54 236 0.9 4.3 0.00 0.00 0.00 81 1014.6
20210919193019 54 271 2.6 5.2 0.00 0.00 0.00 83 1014.5
20210919191637 54 302 0.0 4.3 0.00 0.00 0.00 84 1014.4
20210919184516 52 259 0.9 4.3 0.00 0.00 0.00 88 1014.2
20210919183144 52 271 1.7 5.2 0.00 0.00 0.00 87 1014.2
20210919180127 51 207 0.0 3.5 0.00 0.00 0.00 92 1013.9
20210919174639 50 296 1.7 5.2 0.00 0.00 0.00 93 1013.9
20210919163155 49 233 0.0 2.6 0.00 0.00 0.00 96 1013.3
20210919161522 49 258 0.0 0.9 0.00 0.00 0.00 96 1013.0
20210919160003 48 263 0.0 5.2 0.00 0.00 0.00 96 1012.9
20210919150120 48 250 0.0 0.9 0.00 0.00 0.00 97 1012.5
20210919144511 48 250 0.0 1.7 0.00 0.00 0.00 97 1012.4
20210919143008 48 283 0.0 0.9 0.00 0.00 0.00 97 1012.3
20210919141523 48 283 0.0 1.7 0.00 0.00 0.00 97 1012.2
20210919140003 48 283 0.0 0.9 0.00 0.00 0.00 97 1012.0
20210919134615 48 283 0.0 0.0 0.00 0.00 0.00 97 1011.7
20210919133117 48 283 0.0 0.9 0.00 0.00 0.00 97 1011.5
20210919130125 48 283 0.0 0.0 0.00 0.00 0.00 97 1011.3
20210919123113 48 283 0.0 0.9 0.00 0.00 0.00 97 1010.9
20210919120013 48 273 0.0 0.9 0.00 0.00 0.00 97 1010.9
20210919114536 48 272 0.0 0.9 0.00 0.00 0.00 96 1010.8
20210919113116 48 286 0.0 0.9 0.00 0.00 0.00 97 1010.8
20210919111559 48 286 0.0 3.5 0.00 0.00 0.00 97 1010.7
20210919110054 49 269 0.0 3.5 0.00 0.00 0.00 97 1010.6
20210919104555 49 173 0.0 1.7 0.00 0.00 0.00 97 1010.4
20210919103022 49 166 0.0 0.0 0.00 0.00 0.00 97 1010.3
20210919101529 49 166 0.0 0.0 0.00 0.00 0.00 97 1010.3
20210919100010 49 166 0.0 0.0 0.00 0.00 0.00 97 1010.4
20210919093038 49 47 0.9 3.5 0.00 0.00 0.00 97 1010.4
20210919091625 49 40 0.0 0.9 0.00 0.00 0.00 96 1010.4
20210919084620 49 40 0.0 1.7 0.00 0.00 0.00 96 1010.3
20210919083034 49 40 0.0 0.9 0.00 0.00 0.00 96 1010.1
20210919074625 49 296 0.0 0.0 0.00 0.00 0.00 96 1010.1
20210919073133 49 296 0.0 0.0 0.00 0.00 0.00 96 1010.2
20210919070126 49 275 0.0 0.0 0.00 0.00 0.00 96 1010.3
20210919064625 48 275 0.0 0.0 0.00 0.00 0.00 96 1010.1
20210919061556 49 275 0.0 0.9 0.00 0.00 0.00 96 1010.1
20210919060019 49 275 0.0 0.9 0.00 0.00 0.00 96 1009.9
20210919054501 49 275 0.0 0.0 0.00 0.00 0.00 96 1009.8
20210919051640 49 275 0.0 0.9 0.00 0.00 0.00 96 1009.8